Regional Weather Roundup
Issued by NWS Little Rock, AR

Home | Current Version | Previous Version | Text Only | Print | Product List | Glossary Off
Versions: 1 2 3 4 5 6 7 8 9 10 11 12 13 14 15 16 17 18 19 20 21 22 23 24 25 26 27 28 29 30 31 32 33 34 35 36 37 38 39 40 41 42 43 44 45 46 47 48 49 50

464
ASUS44 KLZK 221305
RWRLZK

WEATHER ROUNDUP FOR ARKANSAS
NATIONAL WEATHER SERVICE LITTLE ROCK AR
800 AM CDT MON MAY 22 2017

NOTE: "FAIR" INDICATES FEW OR NO CLOUDS BELOW 12,000 FEET WITH NO
SIGNIFICANT WEATHER AND/OR OBSTRUCTIONS TO VISIBILITY.

ARZ001-003-010-029-221400-
NORTHWEST ARKANSAS

CITY           SKY/WX    TMP DP  RH WIND       PRES   REMARKS
FAYETTEVILLE   CLOUDY    52  52 100 CALM      30.15F
FORT SMITH     CLOUDY    59  54  83 NE6       30.13F
HARRISON       CLOUDY    54  52  93 SE3       30.16S
BENTONVILLE    CLOUDY    57  52  82 CALM      30.15F
ROGERS         MOSUNNY   58  52  80 SE6       30.15F
SILOAM SPGS    MOSUNNY   55  48  76 SE3       30.14F
HIGHFILL       MOSUNNY   57  53  86 SE5       30.15F
SPRINGDALE     PTSUNNY   55  52  88 CALM      30.17F
$$

ARZ004-005-016-221400-
NORTH CENTRAL ARKANSAS

CITY           SKY/WX    TMP DP  RH WIND       PRES   REMARKS
BATESVILLE     CLOUDY    55  54  94 CALM      30.17R
FLIPPIN        CLOUDY    54  48  82 S3        30.14R
MTN HOME       CLOUDY    55  53  93 CALM      30.14F
$$

ARZ040-041-221400-
WEST CENTRAL ARKANSAS

CITY           SKY/WX    TMP DP  RH WIND       PRES   REMARKS
MENA           CLOUDY    57  55  94 CALM      30.15S
MOUNT IDA      CLOUDY    58  56  93 CALM      30.13S
$$

ARZ009-017-025-026-028-221400-
NORTHEAST ARKANSAS

CITY           SKY/WX    TMP DP  RH WIND       PRES   REMARKS
JONESBORO      CLOUDY    61  51  70 E6        30.14R
NEWPORT        CLOUDY    61  54  77 E3        30.16R
WALNUT RIDGE   CLOUDY    59  52  77 NE3       30.15S
BLYTHEVILLE    CLOUDY    62  54  74 E9        30.15S
NW BLYTHEVILLE CLOUDY    63  54  72 E7        30.14
$$

ARZ022-023-033-042-044-221400-
CENTRAL ARKANSAS

CITY           SKY/WX    TMP DP  RH WIND       PRES   REMARKS
LITTLE ROCK    CLOUDY    62  53  72 NE5       30.15S
N LITTLE ROCK    N/A     61  52  72 CALM      30.16S
JACKSONVILLE   CLOUDY    60  55  83 CALM      30.16R
CONWAY           N/A     61  57  88 CALM      30.15F
SEARCY         CLOUDY    59  57  93 CALM      30.19R
HOT SPRINGS    CLOUDY    61  56  83 SE6       30.14S
RUSSELLVILLE   CLOUDY    58  55  90 CALM      30.15F
CLINTON        FAIR      55  52  88 CALM      30.17S
$$

ARZ036-221400-
EAST ARKANSAS

CITY           SKY/WX    TMP DP  RH WIND       PRES   REMARKS
WEST MEMPHIS   CLOUDY    63  52  67 E10       30.13R
$$

ARZ050-053-066-070-073-221400-
SOUTHWEST ARKANSAS

CITY           SKY/WX    TMP DP  RH WIND       PRES   REMARKS
ARKADELPHIA    FAIR      62  56  80 NE3       30.15R
CAMDEN         LGT RAIN  59  55  88 CALM      30.13F
TEXARKANA      CLOUDY    63  63 100 NE6       30.11S
DE QUEEN       PTSUNNY   61  58  90 E3        30.10F
$$

ARZ056-057-069-221400-
SOUTHEAST ARKANSAS

CITY           SKY/WX    TMP DP  RH WIND       PRES   REMARKS
PINE BLUFF     CLOUDY    63  55  75 NE6       30.15R
STUTTGART      PTSUNNY   64  45  48 E7        30.16F
MONTICELLO     CLOUDY    62  57  83 VRB5      30.12F

$$






USA.gov is the U.S. government's official web portal to all federal, state and local government web resources and services.